Tracking 27419 objects as of 9-Jun-2023
HD Live streaming from Space Station
objects crossing your sky now

OBJECT T

Track OBJECT T now!
10-day predictions


NORAD ID: 51841
Int'l Code: 2022-019T
Perigee: 514.2 km
Apogee: 536.1 km
Inclination: 97.5 °
Period: 95.0 minutes
Semi major axis: 6896 km
RCS: Unknown
Launch date: February 27, 2022
Source: People's Republic of China (PRC)
Launch site: Wenchang Satellite Launch Center (WSC)
Your satellite tracking list
Your tracking list is empty




NASA's NSSDC Master Catalog

Two Line Element Set (TLE):
1 51841U 22019T   23160.15784686  .00010080  00000-0  52680-3 0  9993
2 51841  97.4720 233.5313 0015859  98.4068 261.8963 15.15969865 70572
Source of the keplerian elements: AFSPC